sat.trackr.live / text

‹ back to catalog

HONGYUN 1

NORAD 43871 · 2018-108A

PAYLOAD ACTIVE UNKNOWN

§ Identity

Operator
Country
PRC
Launch date
2018-12-21
Launch site
JSC
Launch vehicle
Mass (kg)
RCS (m²)

External: N2YO · Heavens-Above · Gunter

§ Orbital elements

Epoch: 2026-09-04T05:42:15.349824Z

Period
106.54 min
Inclination
99.7459°
Eccentricity
0.0010896
Mean motion
13.51560656 rev/d
Perigee alt
1,058.4 km
Apogee alt
1,074.6 km
Semi-major
7,444.7 km
B*
-2.9711e-5
RAAN
267.5303°
Arg perigee
224.7013°
Mean anomaly
135.3245°
Rev number
37,976

§ Raw data

HONGYUN 11 43871U 18108A   26247.23767766 -.00000063  00000+0 -29711-4 0  99902 43871  99.7459 267.5303 0010896 224.7013 135.3245 13.51560656379760

JSON: /api/v1/satellites/43871 · /tle

For live sub-satellite position, see the globe view (requires WebGL).

§ Visibility from observer

Set your observer location to see the next 7 days of passes ≥ 10°. The values pass through the URL so the page stays shareable.

No JS? Fill the form by hand. The geolocation button needs JavaScript.